Year,Month,Day,Hour,Minute,Value (Times are PST for temperature in C)
2005,06,21,00,00,18.90
2005,06,21,00,01,18.90
2005,06,21,00,02,18.90
2005,06,21,00,03,18.90
2005,06,21,00,04,18.90
2005,06,21,00,05,18.90
2005,06,21,00,06,18.90
2005,06,21,00,07,18.90
2005,06,21,00,08,18.90
2005,06,21,00,09,18.90
2005,06,21,00,10,18.90
2005,06,21,00,11,19.00
2005,06,21,00,12,19.10
2005,06,21,00,13,19.10
2005,06,21,00,14,19.20
2005,06,21,00,15,19.30
2005,06,21,00,16,19.30
2005,06,21,00,17,19.40
2005,06,21,00,18,19.50
2005,06,21,00,19,19.50
2005,06,21,00,20,19.60
2005,06,21,00,21,19.60
2005,06,21,00,22,19.60
2005,06,21,00,23,19.60
2005,06,21,00,24,19.50
2005,06,21,00,25,19.40
2005,06,21,00,26,19.10
2005,06,21,00,27,18.90
2005,06,21,00,28,18.60
2005,06,21,00,29,18.50
2005,06,21,00,30,18.20
2005,06,21,00,31,17.90
2005,06,21,00,32,17.80
2005,06,21,00,33,17.60
2005,06,21,00,34,17.50
2005,06,21,00,35,17.40
2005,06,21,00,36,17.30
2005,06,21,00,37,17.30
2005,06,21,00,38,17.30
2005,06,21,00,39,17.30
2005,06,21,00,40,17.30
2005,06,21,00,41,17.30
2005,06,21,00,42,17.30
2005,06,21,00,43,17.40
2005,06,21,00,44,17.40
2005,06,21,00,45,17.50
2005,06,21,00,46,17.50
2005,06,21,00,47,17.60
2005,06,21,00,48,17.60
2005,06,21,00,49,17.70
2005,06,21,00,50,17.80
2005,06,21,00,51,17.80
2005,06,21,00,52,17.80
2005,06,21,00,53,17.90
2005,06,21,00,54,17.90
2005,06,21,00,55,17.90
2005,06,21,00,56,17.90
2005,06,21,00,57,17.90
2005,06,21,00,58,17.90
2005,06,21,00,59,17.90
2005,06,21,01,00,17.90
2005,06,21,01,01,17.90
2005,06,21,01,02,17.90
2005,06,21,01,03,17.80
2005,06,21,01,04,17.60
2005,06,21,01,05,17.60
2005,06,21,01,06,17.60
2005,06,21,01,07,17.50
2005,06,21,01,08,17.50
2005,06,21,01,09,17.50
2005,06,21,01,10,17.50
2005,06,21,01,11,17.40
2005,06,21,01,12,17.40
2005,06,21,01,13,17.40
2005,06,21,01,14,17.40
2005,06,21,01,15,17.40
2005,06,21,01,16,17.50
2005,06,21,01,17,17.50
2005,06,21,01,18,17.60
2005,06,21,01,19,17.70
2005,06,21,01,20,17.90
2005,06,21,01,21,18.10
2005,06,21,01,22,18.20
2005,06,21,01,23,18.40
2005,06,21,01,24,18.40
2005,06,21,01,25,18.40
2005,06,21,01,26,18.40
2005,06,21,01,27,18.30
2005,06,21,01,28,18.10
2005,06,21,01,29,18.00
2005,06,21,01,30,17.90
2005,06,21,01,31,17.80
2005,06,21,01,32,17.70
2005,06,21,01,33,17.50
2005,06,21,01,34,17.40
2005,06,21,01,35,17.30
2005,06,21,01,36,17.10
2005,06,21,01,37,17.00
2005,06,21,01,38,17.00
2005,06,21,01,39,17.00
2005,06,21,01,40,16.80
2005,06,21,01,41,16.60
2005,06,21,01,42,16.50
2005,06,21,01,43,16.40
2005,06,21,01,44,16.40
2005,06,21,01,45,16.30
2005,06,21,01,46,16.30
2005,06,21,01,47,16.30
2005,06,21,01,48,16.20
2005,06,21,01,49,16.20
2005,06,21,01,50,16.30
2005,06,21,01,51,16.30
2005,06,21,01,52,16.30
2005,06,21,01,53,16.30
2005,06,21,01,54,16.30
2005,06,21,01,55,16.30
2005,06,21,01,56,16.30
2005,06,21,01,57,16.30
2005,06,21,01,58,16.30
2005,06,21,01,59,16.40
2005,06,21,02,00,16.40
2005,06,21,02,01,16.40
2005,06,21,02,02,16.40
2005,06,21,02,03,16.40
2005,06,21,02,04,16.40
2005,06,21,02,05,16.40
2005,06,21,02,06,16.40
2005,06,21,02,07,16.40
2005,06,21,02,08,16.40
2005,06,21,02,09,16.40
2005,06,21,02,10,16.40
2005,06,21,02,11,16.30
2005,06,21,02,12,16.30
2005,06,21,02,13,16.30
2005,06,21,02,14,16.20
2005,06,21,02,15,16.20
2005,06,21,02,16,16.20
2005,06,21,02,17,16.20
2005,06,21,02,18,16.20
2005,06,21,02,19,16.20
2005,06,21,02,20,16.20
2005,06,21,02,21,16.20
2005,06,21,02,22,16.20
2005,06,21,02,23,16.20
2005,06,21,02,24,16.30
2005,06,21,02,25,16.30
2005,06,21,02,26,16.30
2005,06,21,02,27,16.30
2005,06,21,02,28,16.30
2005,06,21,02,29,16.40
2005,06,21,02,30,16.40
2005,06,21,02,31,16.40
2005,06,21,02,32,16.40
2005,06,21,02,33,16.50
2005,06,21,02,34,16.60
2005,06,21,02,35,16.70
2005,06,21,02,36,16.70
2005,06,21,02,37,16.70
2005,06,21,02,38,16.70
2005,06,21,02,39,16.80
2005,06,21,02,40,16.90
2005,06,21,02,41,17.00
2005,06,21,02,42,17.00
2005,06,21,02,43,17.10
2005,06,21,02,44,17.20
2005,06,21,02,45,17.20
2005,06,21,02,46,17.20
2005,06,21,02,47,17.30
2005,06,21,02,48,17.30
2005,06,21,02,49,17.30
2005,06,21,02,50,17.20
2005,06,21,02,51,17.10
2005,06,21,02,52,17.00
2005,06,21,02,53,16.90
2005,06,21,02,54,16.80
2005,06,21,02,55,16.70
2005,06,21,02,56,16.60
2005,06,21,02,57,16.50
2005,06,21,02,58,16.40
2005,06,21,02,59,16.30
2005,06,21,03,00,16.20
2005,06,21,03,01,16.20
2005,06,21,03,02,16.20
2005,06,21,03,03,16.10
2005,06,21,03,04,16.10
2005,06,21,03,05,16.10
2005,06,21,03,06,16.10
2005,06,21,03,07,16.10
2005,06,21,03,08,16.10
2005,06,21,03,09,16.10
2005,06,21,03,10,16.10
2005,06,21,03,11,16.10
2005,06,21,03,12,16.10
2005,06,21,03,13,16.10
2005,06,21,03,14,16.10
2005,06,21,03,15,16.10
2005,06,21,03,16,16.10
2005,06,21,03,17,16.10
2005,06,21,03,18,16.10
2005,06,21,03,19,16.10
2005,06,21,03,20,16.10
2005,06,21,03,21,16.20
2005,06,21,03,22,16.10
2005,06,21,03,23,16.10
2005,06,21,03,24,16.10
2005,06,21,03,25,16.10
2005,06,21,03,26,16.10
2005,06,21,03,27,16.10
2005,06,21,03,28,16.10
2005,06,21,03,29,16.10
2005,06,21,03,30,16.10
2005,06,21,03,31,16.10
2005,06,21,03,32,16.10
2005,06,21,03,33,16.20
2005,06,21,03,34,16.20
2005,06,21,03,35,16.20
2005,06,21,03,36,16.20
2005,06,21,03,37,16.20
2005,06,21,03,38,16.10
2005,06,21,03,39,16.10
2005,06,21,03,40,16.10
2005,06,21,03,41,16.10
2005,06,21,03,42,16.20
2005,06,21,03,43,16.20
2005,06,21,03,44,16.30
2005,06,21,03,45,16.30
2005,06,21,03,46,16.30
2005,06,21,03,47,16.40
2005,06,21,03,48,16.40
2005,06,21,03,49,16.40
2005,06,21,03,50,16.40
2005,06,21,03,51,16.40
2005,06,21,03,52,16.40
2005,06,21,03,53,16.30
2005,06,21,03,54,16.30
2005,06,21,03,55,16.30
2005,06,21,03,56,16.30
2005,06,21,03,57,16.30
2005,06,21,03,58,16.30
2005,06,21,03,59,16.30
2005,06,21,04,00,16.20
2005,06,21,04,01,16.20
2005,06,21,04,02,16.20
2005,06,21,04,03,16.20
2005,06,21,04,04,16.20
2005,06,21,04,05,16.20
2005,06,21,04,06,16.30
2005,06,21,04,07,16.30
2005,06,21,04,08,16.40
2005,06,21,04,09,16.50
2005,06,21,04,10,16.70
2005,06,21,04,11,16.80
2005,06,21,04,12,17.00
2005,06,21,04,13,17.10
2005,06,21,04,14,17.20
2005,06,21,04,15,17.20
2005,06,21,04,16,17.30
2005,06,21,04,17,17.30
2005,06,21,04,18,17.30
2005,06,21,04,19,17.30
2005,06,21,04,20,17.30
2005,06,21,04,21,17.30
2005,06,21,04,22,17.30
2005,06,21,04,23,17.30
2005,06,21,04,24,17.30
2005,06,21,04,25,17.30
2005,06,21,04,26,17.40
2005,06,21,04,27,17.50
2005,06,21,04,28,17.50
2005,06,21,04,29,17.60
2005,06,21,04,30,17.70
2005,06,21,04,31,17.80
2005,06,21,04,32,17.80
2005,06,21,04,33,17.80
2005,06,21,04,34,17.80
2005,06,21,04,35,17.80
2005,06,21,04,36,17.80
2005,06,21,04,37,17.70
2005,06,21,04,38,17.70
2005,06,21,04,39,17.70
2005,06,21,04,40,17.70
2005,06,21,04,41,17.60
2005,06,21,04,42,17.50
2005,06,21,04,43,17.50
2005,06,21,04,44,17.40
2005,06,21,04,45,17.30
2005,06,21,04,46,17.30
2005,06,21,04,47,17.40
2005,06,21,04,48,17.40
2005,06,21,04,49,17.60
2005,06,21,04,50,17.70
2005,06,21,04,51,17.80
2005,06,21,04,52,18.00
2005,06,21,04,53,18.20
2005,06,21,04,54,18.40
2005,06,21,04,55,18.40
2005,06,21,04,56,18.40
2005,06,21,04,57,18.30
2005,06,21,04,58,18.10
2005,06,21,04,59,18.00
2005,06,21,05,00,17.70
2005,06,21,05,01,17.50
2005,06,21,05,02,17.30
2005,06,21,05,03,17.00
2005,06,21,05,04,16.90
2005,06,21,05,05,16.70
2005,06,21,05,06,16.60
2005,06,21,05,07,16.60
2005,06,21,05,08,16.60
2005,06,21,05,09,16.60
2005,06,21,05,10,16.70
2005,06,21,05,11,16.70
2005,06,21,05,12,16.70
2005,06,21,05,13,16.70
2005,06,21,05,14,16.70
2005,06,21,05,15,16.60
2005,06,21,05,16,16.40
2005,06,21,05,17,16.40
2005,06,21,05,18,16.40
2005,06,21,05,19,16.30
2005,06,21,05,20,16.30
2005,06,21,05,21,16.30
2005,06,21,05,22,16.20
2005,06,21,05,23,16.10
2005,06,21,05,24,16.10
2005,06,21,05,25,15.90
2005,06,21,05,26,15.90
2005,06,21,05,27,15.80
2005,06,21,05,28,15.70
2005,06,21,05,29,15.70
2005,06,21,05,30,15.60
2005,06,21,05,31,15.60
2005,06,21,05,32,15.50
2005,06,21,05,33,15.50
2005,06,21,05,34,15.40
2005,06,21,05,35,15.30
2005,06,21,05,36,15.30
2005,06,21,05,37,15.30
2005,06,21,05,38,15.20
2005,06,21,05,39,15.20
2005,06,21,05,40,15.20
2005,06,21,05,41,15.10
2005,06,21,05,42,15.10
2005,06,21,05,43,15.10
2005,06,21,05,44,15.00
2005,06,21,05,45,15.00
2005,06,21,05,46,15.00
2005,06,21,05,47,15.10
2005,06,21,05,48,15.10
2005,06,21,05,49,15.10
2005,06,21,05,50,15.20
2005,06,21,05,51,15.20
2005,06,21,05,52,15.20
2005,06,21,05,53,15.30
2005,06,21,05,54,15.30
2005,06,21,05,55,15.30
2005,06,21,05,56,15.40
2005,06,21,05,57,15.50
2005,06,21,05,58,15.50
2005,06,21,05,59,15.60
2005,06,21,06,00,15.60
2005,06,21,06,01,15.60
2005,06,21,06,02,15.60
2005,06,21,06,03,15.70
2005,06,21,06,04,15.70
2005,06,21,06,05,15.70
2005,06,21,06,06,15.80
2005,06,21,06,07,15.80
2005,06,21,06,08,15.80
2005,06,21,06,09,15.80
2005,06,21,06,10,15.80
2005,06,21,06,11,15.80
2005,06,21,06,12,15.80
2005,06,21,06,13,15.90
2005,06,21,06,14,16.00
2005,06,21,06,15,16.10
2005,06,21,06,16,16.10
2005,06,21,06,17,16.20
2005,06,21,06,18,16.20
2005,06,21,06,19,16.30
2005,06,21,06,20,16.40
2005,06,21,06,21,16.50
2005,06,21,06,22,16.60
2005,06,21,06,23,16.60
2005,06,21,06,24,16.70
2005,06,21,06,25,16.70
2005,06,21,06,26,16.80
2005,06,21,06,27,16.80
2005,06,21,06,28,16.80
2005,06,21,06,29,16.90
2005,06,21,06,30,16.90
2005,06,21,06,31,16.90
2005,06,21,06,32,17.00
2005,06,21,06,33,17.00
2005,06,21,06,34,17.10
2005,06,21,06,35,17.10
2005,06,21,06,36,17.20
2005,06,21,06,37,17.30
2005,06,21,06,38,17.30
2005,06,21,06,39,17.30
2005,06,21,06,40,17.40
2005,06,21,06,41,17.40
2005,06,21,06,42,17.40
2005,06,21,06,43,17.40
2005,06,21,06,44,17.50
2005,06,21,06,45,17.40
2005,06,21,06,46,17.40
2005,06,21,06,47,17.40
2005,06,21,06,48,17.40
2005,06,21,06,49,17.40
2005,06,21,06,50,17.40
2005,06,21,06,51,17.40
2005,06,21,06,52,17.40
2005,06,21,06,53,17.40
2005,06,21,06,54,17.40
2005,06,21,06,55,17.40
2005,06,21,06,56,17.40
2005,06,21,06,57,17.30
2005,06,21,06,58,17.30
2005,06,21,06,59,17.30
2005,06,21,07,00,17.20
2005,06,21,07,01,17.10
2005,06,21,07,02,17.10
2005,06,21,07,03,17.00
2005,06,21,07,04,17.00
2005,06,21,07,05,17.00
2005,06,21,07,06,17.00
2005,06,21,07,07,16.90
2005,06,21,07,08,16.90
2005,06,21,07,09,16.90
2005,06,21,07,10,16.90
2005,06,21,07,11,16.90
2005,06,21,07,12,16.90
2005,06,21,07,13,16.90
2005,06,21,07,14,16.90
2005,06,21,07,15,17.00
2005,06,21,07,16,17.00
2005,06,21,07,17,17.00
2005,06,21,07,18,17.00
2005,06,21,07,19,17.00
2005,06,21,07,20,17.10
2005,06,21,07,21,17.10
2005,06,21,07,22,17.00
2005,06,21,07,23,17.00
2005,06,21,07,24,17.00
2005,06,21,07,25,17.00
2005,06,21,07,26,16.90
2005,06,21,07,27,16.90
2005,06,21,07,28,17.00
2005,06,21,07,29,17.00
2005,06,21,07,30,17.00
2005,06,21,07,31,17.10
2005,06,21,07,32,17.20
2005,06,21,07,33,17.30
2005,06,21,07,34,17.30
2005,06,21,07,35,17.40
2005,06,21,07,36,17.50
2005,06,21,07,37,17.70
2005,06,21,07,38,17.80
2005,06,21,07,39,17.90
2005,06,21,07,40,17.90
2005,06,21,07,41,18.10
2005,06,21,07,42,18.20
2005,06,21,07,43,18.20
2005,06,21,07,44,18.20
2005,06,21,07,45,18.30
2005,06,21,07,46,18.30
2005,06,21,07,47,18.30
2005,06,21,07,48,18.30
2005,06,21,07,49,18.30
2005,06,21,07,50,18.30
2005,06,21,07,51,18.30
2005,06,21,07,52,18.30
2005,06,21,07,53,18.40
2005,06,21,07,54,18.40
2005,06,21,07,55,18.50
2005,06,21,07,56,18.60
2005,06,21,07,57,18.60
2005,06,21,07,58,18.70
2005,06,21,07,59,18.70
2005,06,21,08,00,18.80
2005,06,21,08,01,18.90
2005,06,21,08,02,18.90
2005,06,21,08,03,18.90
2005,06,21,08,04,18.90
2005,06,21,08,05,18.90
2005,06,21,08,06,18.90
2005,06,21,08,07,18.90
2005,06,21,08,08,18.90
2005,06,21,08,09,18.90
2005,06,21,08,10,19.00
2005,06,21,08,11,19.10
2005,06,21,08,12,19.10
2005,06,21,08,13,19.10
2005,06,21,08,14,19.10
2005,06,21,08,15,19.10
2005,06,21,08,16,19.10
2005,06,21,08,17,19.10
2005,06,21,08,18,19.10
2005,06,21,08,19,19.10
2005,06,21,08,20,19.10
2005,06,21,08,21,19.00
2005,06,21,08,22,18.90
2005,06,21,08,23,18.90
2005,06,21,08,24,18.90
2005,06,21,08,25,18.90
2005,06,21,08,26,18.90
2005,06,21,08,27,18.90
2005,06,21,08,28,18.90
2005,06,21,08,29,18.90
2005,06,21,08,30,18.90
2005,06,21,08,31,18.90
2005,06,21,08,32,18.90
2005,06,21,08,33,18.90
2005,06,21,08,34,18.90
2005,06,21,08,35,18.90
2005,06,21,08,36,18.90
2005,06,21,08,37,18.90
2005,06,21,08,38,18.90
2005,06,21,08,39,18.90
2005,06,21,08,40,18.90
2005,06,21,08,41,18.90
2005,06,21,08,42,18.90
2005,06,21,08,43,18.90
2005,06,21,08,44,18.90
2005,06,21,08,45,18.90
2005,06,21,08,46,18.90
2005,06,21,08,47,18.90
2005,06,21,08,48,18.90
2005,06,21,08,49,18.90
2005,06,21,08,50,18.90
2005,06,21,08,51,18.90
2005,06,21,08,52,18.90
2005,06,21,08,53,19.10
2005,06,21,08,54,19.10
2005,06,21,08,55,19.10
2005,06,21,08,56,19.20
2005,06,21,08,57,19.30
2005,06,21,08,58,19.30
2005,06,21,08,59,19.40
2005,06,21,09,00,19.50
2005,06,21,09,01,19.50
2005,06,21,09,02,19.60
2005,06,21,09,03,19.60
2005,06,21,09,04,19.70
2005,06,21,09,05,19.70
2005,06,21,09,06,19.80
2005,06,21,09,07,19.80
2005,06,21,09,15,20.30
2005,06,21,09,16,20.30
2005,06,21,09,17,20.40
2005,06,21,09,18,20.40
2005,06,21,09,19,20.40
2005,06,21,09,20,20.40
2005,06,21,09,21,20.40
2005,06,21,09,22,20.40
2005,06,21,09,23,20.50
2005,06,21,09,24,20.50
2005,06,21,09,25,20.50
2005,06,21,09,26,20.50
2005,06,21,09,27,20.60
2005,06,21,09,28,20.60
2005,06,21,09,29,20.50
2005,06,21,09,30,20.60
2005,06,21,09,31,20.60
2005,06,21,09,32,20.60
2005,06,21,09,33,20.70
2005,06,21,09,34,20.70
2005,06,21,09,35,20.80
2005,06,21,09,36,20.80
2005,06,21,09,37,20.80
2005,06,21,09,38,20.80
2005,06,21,09,39,20.80
2005,06,21,09,40,20.80
2005,06,21,09,41,20.80
2005,06,21,09,42,20.80
2005,06,21,09,43,20.90
2005,06,21,09,44,20.90
2005,06,21,09,45,20.90
2005,06,21,09,46,20.90
2005,06,21,09,47,20.90
2005,06,21,09,48,20.90
2005,06,21,09,49,20.90
2005,06,21,09,50,20.80
2005,06,21,09,51,20.80
2005,06,21,09,52,20.90
2005,06,21,09,53,20.90
2005,06,21,09,54,20.90
2005,06,21,09,55,21.00
2005,06,21,09,56,21.00
2005,06,21,09,57,21.00
2005,06,21,09,58,21.10
2005,06,21,09,59,21.10
2005,06,21,10,00,21.20
2005,06,21,10,01,21.30
2005,06,21,10,02,21.30
2005,06,21,10,03,21.20
2005,06,21,10,04,21.20
2005,06,21,10,05,20.80
2005,06,21,10,06,20.60
2005,06,21,10,07,20.50
2005,06,21,10,08,20.40
2005,06,21,10,09,20.40
2005,06,21,10,10,20.30
2005,06,21,10,11,20.20
2005,06,21,10,12,20.20
2005,06,21,10,13,20.20
2005,06,21,10,14,20.40
2005,06,21,10,15,20.50
2005,06,21,10,16,20.80
2005,06,21,10,17,21.00
2005,06,21,10,18,21.10
2005,06,21,10,19,21.30
2005,06,21,10,20,21.40
2005,06,21,10,21,21.50
2005,06,21,10,22,21.70
2005,06,21,10,23,21.90
2005,06,21,10,24,21.90
2005,06,21,10,25,21.80
2005,06,21,10,26,21.90
2005,06,21,10,27,22.00
2005,06,21,10,28,22.00
2005,06,21,10,29,22.10
2005,06,21,10,30,22.10
2005,06,21,10,31,22.10
2005,06,21,10,32,22.30
2005,06,21,10,33,22.20
2005,06,21,10,34,22.20
2005,06,21,10,35,22.00
2005,06,21,10,36,22.00
2005,06,21,10,37,22.00
2005,06,21,10,38,22.10
2005,06,21,10,39,22.10
2005,06,21,10,40,22.10
2005,06,21,10,41,22.20
2005,06,21,10,42,22.20
2005,06,21,10,43,22.20
2005,06,21,10,44,22.30
2005,06,21,10,45,22.30
2005,06,21,10,46,22.40
2005,06,21,10,47,22.40
2005,06,21,10,48,22.40
2005,06,21,10,49,22.50
2005,06,21,10,50,22.50
2005,06,21,10,51,22.50
2005,06,21,10,52,22.50
2005,06,21,10,53,22.50
2005,06,21,10,54,22.50
2005,06,21,10,55,22.50
2005,06,21,10,56,22.60
2005,06,21,10,57,22.70
2005,06,21,10,58,22.70
2005,06,21,10,59,22.60
2005,06,21,11,00,22.40
2005,06,21,11,01,22.30
2005,06,21,11,02,22.30
2005,06,21,11,03,22.20
2005,06,21,11,04,22.30
2005,06,21,11,05,22.30
2005,06,21,11,06,22.20
2005,06,21,11,07,22.20
2005,06,21,11,08,22.20
2005,06,21,11,09,22.20
2005,06,21,11,10,22.20
2005,06,21,11,11,22.00
2005,06,21,11,12,21.80
2005,06,21,11,13,21.70
2005,06,21,11,14,21.50
2005,06,21,11,15,21.40
2005,06,21,11,16,21.30
2005,06,21,11,17,21.30
2005,06,21,11,18,21.30
2005,06,21,11,19,21.30
2005,06,21,11,20,21.40
2005,06,21,11,21,21.50
2005,06,21,11,22,21.60
2005,06,21,11,23,21.70
2005,06,21,11,24,21.70
2005,06,21,11,25,21.60
2005,06,21,11,26,21.60
2005,06,21,11,27,21.70
2005,06,21,11,28,21.70
2005,06,21,11,29,21.70
2005,06,21,11,30,21.80
2005,06,21,11,31,21.90
2005,06,21,11,32,22.00
2005,06,21,11,33,22.00
2005,06,21,11,34,22.00
2005,06,21,11,35,21.90
2005,06,21,11,36,21.90
2005,06,21,11,37,21.80
2005,06,21,11,38,21.80
2005,06,21,11,39,21.80
2005,06,21,11,40,21.80
2005,06,21,11,41,21.80
2005,06,21,11,42,22.00
2005,06,21,11,43,22.10
2005,06,21,11,44,22.20
2005,06,21,11,45,22.30
2005,06,21,11,46,22.40
2005,06,21,11,47,22.40
2005,06,21,11,48,22.40
2005,06,21,11,49,22.50
2005,06,21,11,50,22.60
2005,06,21,11,51,22.70
2005,06,21,11,52,22.70
2005,06,21,11,53,22.60
2005,06,21,11,54,22.60
2005,06,21,11,55,22.60
2005,06,21,11,56,22.60
2005,06,21,11,57,22.60
2005,06,21,11,58,22.60
2005,06,21,11,59,22.70
2005,06,21,12,00,22.80
2005,06,21,12,01,22.80
2005,06,21,12,02,22.80
2005,06,21,12,03,22.70
2005,06,21,12,04,22.70
2005,06,21,12,05,22.60
2005,06,21,12,06,22.50
2005,06,21,12,07,22.50
2005,06,21,12,08,22.40
2005,06,21,12,09,22.40
2005,06,21,12,10,22.40
2005,06,21,12,11,22.40
2005,06,21,12,12,22.40
2005,06,21,12,13,22.50
2005,06,21,12,14,22.50
2005,06,21,12,15,22.50
2005,06,21,12,16,22.50
2005,06,21,12,17,22.50
2005,06,21,12,18,22.50
2005,06,21,12,19,22.50
2005,06,21,12,20,22.50
2005,06,21,12,21,22.60
2005,06,21,12,22,22.60
2005,06,21,12,23,22.60
2005,06,21,12,24,22.60
2005,06,21,12,25,22.70
2005,06,21,12,26,22.70
2005,06,21,12,27,22.80
2005,06,21,12,28,22.80
2005,06,21,12,29,22.90
2005,06,21,12,30,22.90
2005,06,21,12,31,23.00
2005,06,21,12,32,23.10
2005,06,21,12,33,23.20
2005,06,21,12,34,23.30
2005,06,21,12,35,23.30
2005,06,21,12,36,23.30
2005,06,21,12,37,23.30
2005,06,21,12,38,23.30
2005,06,21,12,39,23.30
2005,06,21,12,40,23.30
2005,06,21,12,41,23.30
2005,06,21,12,42,23.30
2005,06,21,12,43,23.30
2005,06,21,12,44,23.30
2005,06,21,12,45,23.30
2005,06,21,12,46,23.30
2005,06,21,12,47,23.20
2005,06,21,12,48,23.20
2005,06,21,12,49,23.20
2005,06,21,12,50,23.10
2005,06,21,12,51,23.10
2005,06,21,12,52,23.10
2005,06,21,12,53,23.10
2005,06,21,12,54,23.10
2005,06,21,12,55,23.20
2005,06,21,12,56,23.20
2005,06,21,12,57,23.20
2005,06,21,12,58,23.10
2005,06,21,12,59,23.10
2005,06,21,13,00,22.90
2005,06,21,13,01,22.70
2005,06,21,13,02,22.60
2005,06,21,13,03,22.50
2005,06,21,13,04,22.40
2005,06,21,13,05,22.40
2005,06,21,13,06,22.40
2005,06,21,13,07,22.30
2005,06,21,13,08,22.30
2005,06,21,13,09,22.30
2005,06,21,13,10,22.30
2005,06,21,13,11,22.30
2005,06,21,13,12,22.30
2005,06,21,13,13,22.30
2005,06,21,13,14,22.40
2005,06,21,13,15,22.40
2005,06,21,13,16,22.50
2005,06,21,13,17,22.50
2005,06,21,13,18,22.50
2005,06,21,13,19,22.40
2005,06,21,13,20,22.50
2005,06,21,13,21,22.50
2005,06,21,13,22,22.60
2005,06,21,13,23,22.70
2005,06,21,13,24,22.80
2005,06,21,13,25,22.80
2005,06,21,13,26,22.80
2005,06,21,13,27,22.90
2005,06,21,13,28,22.90
2005,06,21,13,29,22.90
2005,06,21,13,30,23.00
2005,06,21,13,31,23.10
2005,06,21,13,32,23.10
2005,06,21,13,33,23.10
2005,06,21,13,34,23.20
2005,06,21,13,35,23.20
2005,06,21,13,36,23.20
2005,06,21,13,37,23.20
2005,06,21,13,38,23.30
2005,06,21,13,39,23.30
2005,06,21,13,40,23.30
2005,06,21,13,41,23.40
2005,06,21,13,42,23.60
2005,06,21,13,43,23.60
2005,06,21,13,44,23.60
2005,06,21,13,45,23.60
2005,06,21,13,46,23.60
2005,06,21,13,47,23.50
2005,06,21,13,48,23.40
2005,06,21,13,49,23.40
2005,06,21,13,50,23.40
2005,06,21,13,51,23.30
2005,06,21,13,52,23.30
2005,06,21,13,53,23.30
2005,06,21,13,54,23.30
2005,06,21,13,55,23.30
2005,06,21,13,56,23.30
2005,06,21,13,57,23.30
2005,06,21,13,58,23.40
2005,06,21,13,59,23.40
2005,06,21,14,00,23.50
2005,06,21,14,01,23.70
2005,06,21,14,02,23.70
2005,06,21,14,03,23.80
2005,06,21,14,04,23.80
2005,06,21,14,05,24.00
2005,06,21,14,06,24.10
2005,06,21,14,07,24.10
2005,06,21,14,08,24.10
2005,06,21,14,09,24.10
2005,06,21,14,10,24.10
2005,06,21,14,11,24.10
2005,06,21,14,12,24.10
2005,06,21,14,13,24.10
2005,06,21,14,14,24.10
2005,06,21,14,15,24.10
2005,06,21,14,16,24.10
2005,06,21,14,17,24.10
2005,06,21,14,18,24.10
2005,06,21,14,19,24.10
2005,06,21,14,20,24.10
2005,06,21,14,21,23.70
2005,06,21,14,22,23.70
2005,06,21,14,23,23.70
2005,06,21,14,24,23.70
2005,06,21,14,25,23.70
2005,06,21,14,26,23.70
2005,06,21,14,27,23.60
2005,06,21,14,28,23.50
2005,06,21,14,29,23.40
2005,06,21,14,30,23.40
2005,06,21,14,31,23.60
2005,06,21,14,32,23.60
2005,06,21,14,33,23.60
2005,06,21,14,34,23.50
2005,06,21,14,35,23.40
2005,06,21,14,36,23.40
2005,06,21,14,37,23.40
2005,06,21,14,38,23.40
2005,06,21,14,39,23.40
2005,06,21,14,40,23.50
2005,06,21,14,41,23.60
2005,06,21,14,42,23.60
2005,06,21,14,43,23.60
2005,06,21,14,44,23.60
2005,06,21,14,45,23.60
2005,06,21,14,46,23.40
2005,06,21,14,47,23.40
2005,06,21,14,48,23.40
2005,06,21,14,49,23.30
2005,06,21,14,50,23.30
2005,06,21,14,51,23.30
2005,06,21,14,52,23.20
2005,06,21,14,53,23.20
2005,06,21,14,54,23.20
2005,06,21,14,55,23.20
2005,06,21,14,56,23.30
2005,06,21,14,57,23.30
2005,06,21,14,58,23.30
2005,06,21,14,59,23.40
2005,06,21,15,00,23.40
2005,06,21,15,01,23.30
2005,06,21,15,02,23.30
2005,06,21,15,03,23.20
2005,06,21,15,04,23.20
2005,06,21,15,05,23.20
2005,06,21,15,06,23.30
2005,06,21,15,07,23.20
2005,06,21,15,08,23.20
2005,06,21,15,09,23.10
2005,06,21,15,10,23.10
2005,06,21,15,11,23.10
2005,06,21,15,12,23.10
2005,06,21,15,13,22.90
2005,06,21,15,14,22.90
2005,06,21,15,15,22.90
2005,06,21,15,16,22.90
2005,06,21,15,17,22.90
2005,06,21,15,18,22.90
2005,06,21,15,19,22.90
2005,06,21,15,20,22.80
2005,06,21,15,21,22.80
2005,06,21,15,22,22.70
2005,06,21,15,23,22.70
2005,06,21,15,24,22.70
2005,06,21,15,25,22.70
2005,06,21,15,26,22.70
2005,06,21,15,27,22.70
2005,06,21,15,28,22.80
2005,06,21,15,29,22.80
2005,06,21,15,30,22.90
2005,06,21,15,31,22.90
2005,06,21,15,32,22.90
2005,06,21,15,33,22.90
2005,06,21,15,34,23.10
2005,06,21,15,35,23.10
2005,06,21,15,36,23.10
2005,06,21,15,37,23.10
2005,06,21,15,38,23.10
2005,06,21,15,39,23.10
2005,06,21,15,40,23.10
2005,06,21,15,41,23.10
2005,06,21,15,42,23.10
2005,06,21,15,43,23.10
2005,06,21,15,44,23.00
2005,06,21,15,45,22.90
2005,06,21,15,46,22.90
2005,06,21,15,47,22.90
2005,06,21,15,48,22.90
2005,06,21,15,49,22.90
2005,06,21,15,50,22.90
2005,06,21,15,51,22.90
2005,06,21,15,52,22.90
2005,06,21,15,53,22.90
2005,06,21,15,54,22.90
2005,06,21,15,55,22.90
2005,06,21,15,56,22.90
2005,06,21,15,57,22.90
2005,06,21,15,58,22.90
2005,06,21,15,59,22.90
2005,06,21,16,00,22.90
2005,06,21,16,01,22.90
2005,06,21,16,02,22.90
2005,06,21,16,03,22.80
2005,06,21,16,04,22.80
2005,06,21,16,05,22.80
2005,06,21,16,06,22.70
2005,06,21,16,07,22.70
2005,06,21,16,08,22.60
2005,06,21,16,09,22.50
2005,06,21,16,10,22.40
2005,06,21,16,11,22.30
2005,06,21,16,12,22.20
2005,06,21,16,13,22.10
2005,06,21,16,14,22.00
2005,06,21,16,15,21.80
2005,06,21,16,16,21.70
2005,06,21,16,17,21.60
2005,06,21,16,18,21.40
2005,06,21,16,19,21.30
2005,06,21,16,20,21.30
2005,06,21,16,21,21.30
2005,06,21,16,22,21.30
2005,06,21,16,23,21.20
2005,06,21,16,24,21.00
2005,06,21,16,25,21.00
2005,06,21,16,26,21.00
2005,06,21,16,27,20.90
2005,06,21,16,28,20.90
2005,06,21,16,29,20.90
2005,06,21,16,30,20.90
2005,06,21,16,31,20.90
2005,06,21,16,32,20.90
2005,06,21,16,33,20.80
2005,06,21,16,34,20.80
2005,06,21,16,35,20.80
2005,06,21,16,36,20.70
2005,06,21,16,37,20.70
2005,06,21,16,38,20.70
2005,06,21,16,39,20.70
2005,06,21,16,40,20.60
2005,06,21,16,41,20.40
2005,06,21,16,42,20.30
2005,06,21,16,43,20.20
2005,06,21,16,44,20.00
2005,06,21,16,45,19.90
2005,06,21,16,46,19.80
2005,06,21,16,47,19.60
2005,06,21,16,48,19.50
2005,06,21,16,49,19.30
2005,06,21,16,50,19.10
2005,06,21,16,51,19.00
2005,06,21,16,52,18.90
2005,06,21,16,53,18.70
2005,06,21,16,54,18.60
2005,06,21,16,55,18.50
2005,06,21,16,56,18.30
2005,06,21,16,57,18.20
2005,06,21,16,58,18.10
2005,06,21,16,59,18.10
2005,06,21,17,00,17.90
2005,06,21,17,01,17.80
2005,06,21,17,02,17.70
2005,06,21,17,03,17.60
2005,06,21,17,04,17.50
2005,06,21,17,05,17.40
2005,06,21,17,06,17.30
2005,06,21,17,07,17.30
2005,06,21,17,08,17.20
2005,06,21,17,09,17.10
2005,06,21,17,10,17.10
2005,06,21,17,11,17.00
2005,06,21,17,12,16.90
2005,06,21,17,13,16.80
2005,06,21,17,14,16.80
2005,06,21,17,15,16.70
2005,06,21,17,16,16.70
2005,06,21,17,17,16.70
2005,06,21,17,18,16.70
2005,06,21,17,19,16.60
2005,06,21,17,20,16.60
2005,06,21,17,21,16.60
2005,06,21,17,22,16.50
2005,06,21,17,23,16.50
2005,06,21,17,24,16.40
2005,06,21,17,25,16.40
2005,06,21,17,26,16.40